Location: *
(46.4833°N, 7.6667°E)
Time: 08:55:25
(UTC+00:00)

STARLINK-48 - Pass Details

Date: 27 February 2020
Orbit: 506 x 507 km, 53.0° (Epoch: 04 April)

Event Time Altitude Azimuth Distance (km) Brightness Sun altitude
Rises 19:04:31 0° 299° (WNW) 2,612 8.3 -20.2°
Reaches altitude 10° 19:06:44 10° 303° (WNW) 1,725 7.1 -20.5°
Maximum altitude 19:10:36 64° 25° (NNE) 567 3.5 -21.2°
Enters shadow 19:10:40 63° 32° (NNE) 567 3.5 -21.2°
